Milk River, Alberta

10:21 AM MDT on March 26, 2017 (GMT -0600)
Milk River

Weather History for 71244 - April, 2014

Change the Weather History Date:

Monday, April 21, 2014

  Actual Average Record
Temperature  
Mean Temperature 45 °F -  
Max Temperature 65 °F - - ()
Min Temperature 25 °F - - ()
Degree Days  
Heating Degree Days 20    
Moisture  
Dew Point 21 °F    
Average Humidity 43    
Maximum Humidity 85    
Minimum Humidity 7    
Precipitation  
Precipitation 0.17 in - - ()
Sea Level Pressure  
Sea Level Pressure 30.10 in    
Wind  
Wind Speed 5 mph ()    
Max Wind Speed 10 mph    
Max Gust Speed -    
T = Trace of Precipitation, MM = Missing Value Source: Averaged Metar Reports

Daily Weather History Graph

Daily Weather History Graph

Search for Another Location

Airport or City:

Trip Planner

Search our weather history database for the weather conditions in past years. The results will help you decide how hot, cold, wet, or windy it might be!

Date:

Astronomy

Apr. 21, 2014 Rise Set
Actual Time 6:24 AM MDT 8:29 PM MDT
Civil Twilight 5:50 AM MDT 9:04 PM MDT
Nautical Twilight 5:08 AM MDT 9:46 PM MDT
Astronomical Twilight 4:20 AM MDT 10:35 PM MDT
Moon 2:10 AM MDT (4/21) 11:49 AM MDT (4/21)
Length of Visible Light 15h 13m
Length of Day
14h 04m
Waning Gibbous, 57% of the Moon is Illuminated
Apr 21
Waning Gibbous
Apr 22
Last Quarter
Apr 29
New
May 6
First Quarter
May 14
Full

Hourly Weather History & Observations

Time (MDT) Temp. Windchill Dew Point Humidity Pressure Visibility Wind Dir Wind Speed Gust Speed Precip Events Conditions
12:00 AM 33 °F - 23 °F 55% 30.18 in - WNW 5.8 mph - -  
12:00 AM 32.9 °F 27.5 °F 23.0 °F 67% 30.18 in - WNW 5.8 mph - N/A   Unknown
1:00 AM 30.9 °F 27.5 °F 22.8 °F 72% 30.19 in - North 3.5 mph - N/A   Unknown
2:00 AM 28.6 °F - 22.1 °F 77% 30.20 in - NNW 2.3 mph - N/A   Unknown
3:00 AM 30.2 °F - 21.7 °F 71% 30.19 in - NNE 1.2 mph - N/A   Unknown
4:00 AM 28.0 °F 22.8 °F 21.0 °F 75% 30.21 in - North 4.6 mph - N/A   Unknown
5:00 AM 27.0 °F 23.0 °F 20.1 °F 75% 30.22 in - West 3.5 mph - N/A   Unknown
6:00 AM 26 °F - 20 °F 71% 30.21 in - WNW 4.6 mph - -  
6:00 AM 26.1 °F 20.5 °F 22.1 °F 85% 30.21 in - WNW 4.6 mph - N/A   Unknown
7:00 AM 28.6 °F 21.5 °F 21.9 °F 76% 30.20 in - West 6.9 mph - N/A   Unknown
8:00 AM 33.6 °F - 24.6 °F 70% 30.21 in - SW 2.3 mph - N/A   Unknown
9:00 AM 41.7 °F - 26.8 °F 55% 30.22 in - ESE 2.3 mph - N/A   Unknown
10:00 AM 52.0 °F - 22.3 °F 31% 30.17 in - WSW 4.6 mph - N/A   Unknown
11:00 AM 57.2 °F - 20.7 °F 24% 30.14 in - SSW 8.1 mph - N/A   Unknown
12:00 PM 61 °F - 19 °F 10% 30.13 in - West 6.9 mph - -  
12:00 PM 60.6 °F - 19.4 °F 20% 30.13 in - West 6.9 mph - N/A   Unknown
1:00 PM 63.7 °F - 18.3 °F 17% 30.10 in - South 10.4 mph - N/A   Unknown
2:00 PM 61.3 °F - 12.7 °F 15% 30.09 in - SSW 10.4 mph - N/A   Unknown
3:00 PM 62.6 °F - 14.9 °F 16% 30.06 in - SSW 8.1 mph - N/A   Unknown
4:00 PM 62.8 °F - 13.3 °F 15% 30.04 in - SW 8.1 mph - N/A   Unknown
5:00 PM 65.1 °F - 18.0 °F 16% 30.01 in - South 8.1 mph - N/A   Unknown
6:00 PM 65 °F - 16 °F 7% 29.99 in - South 9.2 mph - -  
6:00 PM 64.6 °F - 16.3 °F 16% 29.99 in - South 9.2 mph - N/A   Unknown
7:00 PM 62.2 °F - 20.5 °F 20% 29.96 in - SSE 10.4 mph - N/A   Unknown
8:00 PM 54.9 °F - 23.2 °F 29% 29.94 in - SE 9.2 mph - N/A   Unknown
9:00 PM 49.6 °F - 24.6 °F 38% 29.92 in - SE 6.9 mph - N/A   Unknown
10:00 PM 48.4 °F - 25.0 °F 40% 29.89 in - South 3.5 mph - N/A   Unknown
11:00 PM 46.8 °F - 24.4 °F 42% 29.87 in - West 2.3 mph - N/A   Unknown